UAE4V OOMS-OMDB

Flight info

Callsign UAE4V
Flight time 0h 40m
Altitude 20000
Route MCT T508 SOLUD P574 IMPED
Aircraft B77W/H-SDE1E2E3FGHIJ2J3J4J5M1RWXY/LB1D1

Departure

Time 2026-04-22 14:05
Airport Muscat International Airport (OOMS)

Arrival

Time 2026-04-22 14:45
Airport Dubai International Airport (OMDB)
Time Latitude Longitude Altitude Speed Heading
2026-04-22 13:17 23.59973 58.28557 77 ft 0 kts 39°
2026-04-22 13:55 23.59956 58.28542 46 ft 4 kts 39°
2026-04-22 13:55 23.59935 58.28523 44 ft 4 kts 38°
2026-04-22 13:55 23.59914 58.28505 42 ft 4 kts 39°
2026-04-22 13:56 23.59895 58.28488 43 ft 2 kts 40°
2026-04-22 13:56 23.59876 58.28477 45 ft 4 kts 348°
2026-04-22 13:56 23.59853 58.28490 45 ft 4 kts 323°
2026-04-22 13:56 23.59841 58.28499 44 ft 0 kts 329°
2026-04-22 13:57 23.59865 58.28489 44 ft 4 kts 339°
2026-04-22 13:57 23.59879 58.28470 42 ft 4 kts 284°
2026-04-22 13:57 23.59878 58.28457 45 ft 0 kts 264°
2026-04-22 13:59 23.59876 58.28444 48 ft 8 kts 262°
2026-04-22 13:59 23.59865 58.28318 49 ft 19 kts 266°
2026-04-22 14:00 23.59855 58.28171 49 ft 19 kts 265°
2026-04-22 14:00 23.59842 58.28025 49 ft 19 kts 263°
2026-04-22 14:00 23.59784 58.27899 49 ft 19 kts 219°
2026-04-22 14:00 23.59680 58.27805 46 ft 19 kts 219°
2026-04-22 14:01 23.59594 58.27726 49 ft 10 kts 219°
2026-04-22 14:01 23.59548 58.27666 49 ft 11 kts 244°
2026-04-22 14:01 23.59536 58.27588 49 ft 11 kts 264°
2026-04-22 14:01 23.59529 58.27505 49 ft 11 kts 264°
2026-04-22 14:02 23.59522 58.27421 49 ft 11 kts 264°
2026-04-22 14:02 23.59514 58.27332 49 ft 12 kts 264°
2026-04-22 14:02 23.59506 58.27240 49 ft 13 kts 265°
2026-04-22 14:02 23.59498 58.27145 49 ft 13 kts 265°
2026-04-22 14:03 23.59490 58.27045 49 ft 13 kts 265°
2026-04-22 14:03 23.59482 58.26943 49 ft 14 kts 265°
2026-04-22 14:03 23.59474 58.26840 49 ft 14 kts 265°
2026-04-22 14:03 23.59466 58.26738 49 ft 14 kts 265°
2026-04-22 14:04 23.59404 58.26680 49 ft 14 kts 182°
2026-04-22 14:04 23.59308 58.26685 49 ft 14 kts 176°
2026-04-22 14:04 23.59212 58.26696 50 ft 14 kts 165°
2026-04-22 14:04 23.59177 58.26787 49 ft 16 kts 87°
2026-04-22 14:05 23.59201 58.27069 50 ft 72 kts 85°
2026-04-22 14:05 23.59267 58.27903 48 ft 146 kts 85°
2026-04-22 14:05 23.59496 58.30570 995 ft 182 kts 85°
2026-04-22 14:06 23.59632 58.31954 1733 ft 185 kts 85°
2026-04-22 14:06 23.59742 58.33375 2277 ft 197 kts 86°
2026-04-22 14:06 23.59873 58.34969 2485 ft 224 kts 85°
2026-04-22 14:06 23.60024 58.36760 2656 ft 255 kts 85°
2026-04-22 14:07 23.60180 58.38712 3377 ft 256 kts 89°
2026-04-22 14:07 23.59802 58.40602 4064 ft 260 kts 122°
2026-04-22 14:07 23.58514 58.41988 4790 ft 264 kts 151°
2026-04-22 14:07 23.56783 58.42627 5599 ft 264 kts 175°
2026-04-22 14:08 23.54958 58.42494 6367 ft 265 kts 198°
2026-04-22 14:08 23.53355 58.41532 7132 ft 265 kts 224°
2026-04-22 14:08 23.52337 58.39877 7936 ft 264 kts 251°
2026-04-22 14:08 23.52108 58.37904 8601 ft 273 kts 277°
2026-04-22 14:09 23.52751 58.35958 9350 ft 277 kts 303°
2026-04-22 14:09 23.54116 58.34477 10109 ft 280 kts 326°
2026-04-22 14:09 23.55827 58.33407 10762 ft 286 kts 330°
2026-04-22 14:09 23.57566 58.32346 11622 ft 287 kts 329°
2026-04-22 14:10 23.59303 58.31274 12571 ft 288 kts 330°
2026-04-22 14:10 23.60938 58.29993 13070 ft 299 kts 310°
2026-04-22 14:10 23.61898 58.27913 13245 ft 322 kts 281°
2026-04-22 14:10 23.61847 58.25410 13438 ft 344 kts 257°
2026-04-22 14:11 23.61301 58.22826 13543 ft 356 kts 267°
2026-04-22 14:11 23.61662 58.20098 13709 ft 374 kts 290°
2026-04-22 14:11 23.62640 58.17422 14102 ft 386 kts 292°
2026-04-22 14:11 23.63583 58.14666 14766 ft 388 kts 289°
2026-04-22 14:12 23.64419 58.11861 15499 ft 391 kts 287°
2026-04-22 14:12 23.65186 58.09015 16207 ft 394 kts 285°
2026-04-22 14:12 23.65926 58.06115 16871 ft 398 kts 284°
2026-04-22 14:12 23.66650 58.03226 17470 ft 403 kts 284°
2026-04-22 14:13 23.67393 58.00264 18146 ft 406 kts 284°
2026-04-22 14:13 23.68142 57.97287 18738 ft 409 kts 285°
2026-04-22 14:13 23.69046 57.94334 19278 ft 413 kts 292°
2026-04-22 14:13 23.70307 57.91504 19750 ft 416 kts 297°
2026-04-22 14:14 23.71838 57.88805 19761 ft 421 kts 304°
2026-04-22 14:14 23.73635 57.86282 19780 ft 420 kts 307°
2026-04-22 14:14 23.75465 57.83794 19777 ft 420 kts 307°
2026-04-22 14:14 23.77295 57.81313 19778 ft 419 kts 307°
2026-04-22 14:15 23.79116 57.78831 19770 ft 419 kts 307°
2026-04-22 14:15 23.80927 57.76346 19774 ft 418 kts 307°
2026-04-22 14:15 23.82732 57.73856 19770 ft 418 kts 307°
2026-04-22 14:15 23.84529 57.71368 19767 ft 417 kts 307°
2026-04-22 14:16 23.86322 57.68881 19771 ft 417 kts 307°
2026-04-22 14:16 23.88115 57.66393 19775 ft 417 kts 306°
2026-04-22 14:16 23.89907 57.63903 19765 ft 417 kts 306°
2026-04-22 14:16 23.91701 57.61410 19772 ft 417 kts 306°
2026-04-22 14:17 23.93495 57.58916 19783 ft 418 kts 306°
2026-04-22 14:17 23.95289 57.56420 19782 ft 418 kts 306°
2026-04-22 14:17 23.97090 57.53915 19783 ft 419 kts 306°
2026-04-22 14:17 23.98890 57.51410 19781 ft 419 kts 306°
2026-04-22 14:18 24.00689 57.48904 19787 ft 419 kts 306°
2026-04-22 14:18 24.02485 57.46398 19788 ft 419 kts 306°
2026-04-22 14:18 24.04283 57.43887 19785 ft 419 kts 306°
2026-04-22 14:18 24.06080 57.41375 19782 ft 419 kts 306°
2026-04-22 14:19 24.07874 57.38865 19786 ft 419 kts 306°
2026-04-22 14:19 24.09667 57.36356 19787 ft 419 kts 306°
2026-04-22 14:19 24.11459 57.33846 19787 ft 419 kts 306°
2026-04-22 14:19 24.13252 57.31335 19791 ft 419 kts 306°
2026-04-22 14:20 24.16836 57.26310 19799 ft 419 kts 306°
2026-04-22 14:20 24.18627 57.23797 19797 ft 418 kts 306°
2026-04-22 14:20 24.20417 57.21285 19793 ft 418 kts 306°
2026-04-22 14:21 24.23995 57.16259 19799 ft 418 kts 306°
2026-04-22 14:21 24.25782 57.13747 19800 ft 418 kts 306°
2026-04-22 14:22 24.29354 57.08721 19800 ft 417 kts 306°
2026-04-22 14:22 24.30535 57.07059 19800 ft 417 kts 306°
2026-04-22 14:22 24.34097 57.02041 19800 ft 417 kts 306°
2026-04-22 14:23 24.35876 56.99531 19795 ft 417 kts 306°
2026-04-22 14:23 24.37654 56.97024 19793 ft 416 kts 306°
2026-04-22 14:23 24.39430 56.94517 19795 ft 416 kts 306°
2026-04-22 14:23 24.41207 56.92008 19789 ft 416 kts 306°
2026-04-22 14:24 24.42982 56.89500 19788 ft 416 kts 306°
2026-04-22 14:24 24.44758 56.86989 19786 ft 416 kts 306°
2026-04-22 14:24 24.46533 56.84478 19784 ft 416 kts 306°
2026-04-22 14:24 24.48309 56.81965 19784 ft 417 kts 306°
2026-04-22 14:25 24.50084 56.79452 19780 ft 417 kts 306°
2026-04-22 14:25 24.51859 56.76937 19782 ft 417 kts 306°
2026-04-22 14:25 24.53635 56.74421 19783 ft 416 kts 306°
2026-04-22 14:25 24.55408 56.71908 19783 ft 416 kts 306°
2026-04-22 14:26 24.57181 56.69398 19785 ft 415 kts 306°
2026-04-22 14:26 24.58946 56.66896 19782 ft 414 kts 306°
2026-04-22 14:26 24.60710 56.64395 19782 ft 413 kts 306°
2026-04-22 14:26 24.62468 56.61900 19798 ft 412 kts 306°
2026-04-22 14:27 24.64221 56.59410 19796 ft 411 kts 306°
2026-04-22 14:27 24.65971 56.56924 19798 ft 411 kts 306°
2026-04-22 14:27 24.67684 56.54491 19720 ft 403 kts 306°
2026-04-22 14:27 24.69394 56.52061 19197 ft 401 kts 306°
2026-04-22 14:28 24.71094 56.49648 18734 ft 397 kts 306°
2026-04-22 14:28 24.72782 56.47252 18246 ft 395 kts 306°
2026-04-22 14:28 24.74459 56.44871 17726 ft 393 kts 306°
2026-04-22 14:28 24.76125 56.42504 17207 ft 389 kts 306°
2026-04-22 14:29 24.77775 56.40159 16715 ft 386 kts 306°
2026-04-22 14:29 24.79410 56.37833 16251 ft 383 kts 306°
2026-04-22 14:29 24.81012 56.35503 15785 ft 379 kts 305°
2026-04-22 14:29 24.82574 56.33176 15325 ft 377 kts 304°
2026-04-22 14:30 24.84124 56.30862 14869 ft 374 kts 304°
2026-04-22 14:30 24.85666 56.28570 14412 ft 372 kts 304°
2026-04-22 14:30 24.87202 56.26290 13953 ft 369 kts 304°
2026-04-22 14:30 24.88626 56.23946 13459 ft 366 kts 298°
2026-04-22 14:31 24.89862 56.21521 13128 ft 359 kts 297°
2026-04-22 14:31 24.91056 56.19124 12781 ft 354 kts 297°
2026-04-22 14:31 24.92221 56.16794 12654 ft 342 kts 297°
2026-04-22 14:31 24.93358 56.14538 12483 ft 332 kts 296°
2026-04-22 14:32 24.94323 56.12237 12009 ft 330 kts 289°
2026-04-22 14:32 24.95113 56.09869 11564 ft 329 kts 287°
2026-04-22 14:32 24.95864 56.07485 11119 ft 329 kts 287°
2026-04-22 14:32 24.96605 56.05125 10928 ft 321 kts 287°
2026-04-22 14:33 24.97332 56.02846 10850 ft 309 kts 287°
2026-04-22 14:33 24.98038 56.00657 10769 ft 298 kts 287°
2026-04-22 14:33 24.98723 55.98552 10626 ft 285 kts 287°
2026-04-22 14:33 24.99386 55.96525 10243 ft 280 kts 287°
2026-04-22 14:34 25.00046 55.94508 9928 ft 279 kts 287°
2026-04-22 14:34 25.00703 55.92507 9658 ft 277 kts 287°
2026-04-22 14:34 25.01357 55.90517 9338 ft 275 kts 287°
2026-04-22 14:34 25.02009 55.88535 9001 ft 275 kts 287°
2026-04-22 14:35 25.02651 55.86584 8694 ft 273 kts 287°
2026-04-22 14:35 25.03298 55.84616 8381 ft 272 kts 287°
2026-04-22 14:35 25.03939 55.82667 8154 ft 265 kts 287°
2026-04-22 14:35 25.04551 55.80810 7942 ft 250 kts 287°
2026-04-22 14:36 25.05126 55.79067 7793 ft 233 kts 287°
2026-04-22 14:36 25.05661 55.77445 7552 ft 218 kts 286°
2026-04-22 14:36 25.06168 55.75900 7327 ft 210 kts 285°
2026-04-22 14:36 25.06652 55.74423 7190 ft 198 kts 286°
2026-04-22 14:37 25.07111 55.73025 6952 ft 191 kts 286°
2026-04-22 14:37 25.07557 55.71665 6656 ft 187 kts 285°
2026-04-22 14:37 25.07997 55.70317 6301 ft 187 kts 285°
2026-04-22 14:37 25.08433 55.68980 5967 ft 185 kts 286°
2026-04-22 14:38 25.08866 55.67656 5656 ft 180 kts 287°
2026-04-22 14:38 25.09294 55.66356 5424 ft 182 kts 286°
2026-04-22 14:38 25.09722 55.65050 5209 ft 185 kts 287°
2026-04-22 14:38 25.10249 55.63749 4969 ft 186 kts 293°
2026-04-22 14:39 25.10882 55.62502 4699 ft 187 kts 295°
2026-04-22 14:39 25.11550 55.61260 4293 ft 189 kts 297°
2026-04-22 14:39 25.12217 55.60047 4028 ft 181 kts 299°
2026-04-22 14:40 25.13530 55.57668 3587 ft 184 kts 298°
2026-04-22 14:40 25.14190 55.56478 3338 ft 179 kts 300°
2026-04-22 14:40 25.14818 55.55347 3128 ft 167 kts 301°
2026-04-22 14:40 25.15407 55.54285 2896 ft 156 kts 301°
2026-04-22 14:41 25.15960 55.53284 2761 ft 151 kts 301°
2026-04-22 14:41 25.16515 55.52282 2546 ft 153 kts 300°
2026-04-22 14:41 25.17063 55.51297 2363 ft 149 kts 301°
2026-04-22 14:41 25.17595 55.50329 2159 ft 148 kts 301°
2026-04-22 14:42 25.18133 55.49359 1977 ft 148 kts 302°
2026-04-22 14:42 25.18671 55.48388 1792 ft 149 kts 303°
2026-04-22 14:42 25.19224 55.47391 1625 ft 153 kts 303°
2026-04-22 14:42 25.19769 55.46405 1397 ft 148 kts 305°
2026-04-22 14:43 25.20296 55.45453 1226 ft 144 kts 306°
2026-04-22 14:43 25.20832 55.44488 1051 ft 151 kts 306°
2026-04-22 14:43 25.21370 55.43515 862 ft 145 kts 306°
2026-04-22 14:43 25.21904 55.42545 676 ft 150 kts 303°
2026-04-22 14:44 25.22430 55.41589 499 ft 144 kts 303°
2026-04-22 14:44 25.22966 55.40637 357 ft 149 kts 301°
2026-04-22 14:44 25.23491 55.39654 105 ft 147 kts 303°
2026-04-22 14:44 25.24009 55.38730 27 ft 130 kts 301°
2026-04-22 14:45 25.24406 55.38015 27 ft 82 kts 302°
2026-04-22 14:45 25.24692 55.37505 27 ft 62 kts 301°
2026-04-22 14:45 25.24891 55.37147 27 ft 50 kts 302°
2026-04-22 14:45 25.25011 55.36869 27 ft 27 kts 275°
2026-04-22 14:46 25.25015 55.36728 27 ft 17 kts 271°
2026-04-22 14:46 25.25022 55.36594 27 ft 17 kts 273°
2026-04-22 14:46 25.25034 55.36461 27 ft 17 kts 284°
2026-04-22 14:46 25.25078 55.36337 27 ft 17 kts 299°
2026-04-22 14:47 25.25141 55.36222 27 ft 17 kts 301°
2026-04-22 14:47 25.25205 55.36108 27 ft 17 kts 302°
2026-04-22 14:47 25.25269 55.35995 27 ft 17 kts 301°
2026-04-22 14:47 25.25333 55.35882 27 ft 16 kts 302°
2026-04-22 14:48 25.25384 55.35793 27 ft 14 kts 302°
2026-04-22 14:48 25.25432 55.35705 27 ft 14 kts 301°
2026-04-22 14:48 25.25482 55.35616 27 ft 14 kts 301°
2026-04-22 14:48 25.25531 55.35528 27 ft 13 kts 302°
2026-04-22 14:49 25.25577 55.35446 27 ft 12 kts 302°
2026-04-22 14:49 25.25595 55.35397 27 ft 6 kts 264°
2026-04-22 14:49 25.25570 55.35364 27 ft 6 kts 218°
2026-04-22 14:49 25.25533 55.35335 27 ft 7 kts 214°
2026-04-22 14:50 25.25492 55.35307 28 ft 7 kts 212°
2026-04-22 14:50 25.25460 55.35285 27 ft 2 kts 212°
2026-04-22 14:50 25.25451 55.35279 27 ft 1 kts 212°
2026-04-22 14:50 25.25451 55.35278 27 ft 0 kts 212°